WA6MHA-15 Weather Reports


Display with metric or nautical units.
time (UTC)temp
F
wind
direction
speed
MPH
gust
MPH
rain 1hr
in
rain 24hr
in
rain mn
in
humidity
%
barometer
mb
20170624015900 69 167 3.0 8.0 0.00 0.00 0.00 82
20170624015606 69 167 3.0 8.0 0.00 0.00 0.00 82
20170624014418 72 144 0.0 9.0 0.00 0.00 0.00 77
20170624014051 72 144 0.0 9.0 0.00 0.00 0.00 77
20170624014044 73 246 3.0 8.0 0.00 0.00 0.00 75
20170624013750 73 246 3.0 8.0 0.00 0.00 0.00 75
20170624013447 73 272 4.0 8.0 0.00 0.00 0.00 76
20170624012734 75 191 5.0 9.0 0.00 0.00 0.00 73
20170624012540 75 191 5.0 9.0 0.00 0.00 0.00 73
20170624010709 79 323 6.0 10.0 0.00 0.00 0.00 65
20170624010422 79 323 6.0 10.0 0.00 0.00 0.00 65
20170624010316 80 292 5.0 10.0 0.00 0.00 0.00 64
20170624010121 80 292 5.0 10.0 0.00 0.00 0.00 64
20170624010044 80 288 3.0 8.0 0.00 0.00 0.00 64
20170624005818 80 288 3.0 8.0 0.00 0.00 0.00 64
20170624005517 80 279 3.0 6.0 0.00 0.00 0.00 63
20170624005411 80 270 5.0 6.0 0.00 0.00 0.00 63
20170624005214 80 270 5.0 6.0 0.00 0.00 0.00 63
20170624005131 80 217 5.0 9.0 0.00 0.00 0.00 63
20170624004911 80 217 5.0 9.0 0.00 0.00 0.00 63
20170624004609 80 50 2.0 9.0 0.00 0.00 0.00 63
20170624003702 82 136 0.0 8.0 0.00 0.00 0.00 62
20170624003010 80 213 1.0 6.0 0.00 0.00 0.00 62
20170624002755 80 213 1.0 6.0 0.00 0.00 0.00 62
20170624002332 80 317 1.0 5.0 0.00 0.00 0.00 64
20170624002149 80 317 1.0 5.0 0.00 0.00 0.00 64
20170624001846 80 223 3.0 5.0 0.00 0.00 0.00 64
20170624001758 80 255 1.0 6.0 0.00 0.00 0.00 64
20170624001543 80 255 1.0 6.0 0.00 0.00 0.00 64
20170624000032 79 187 6.0 9.0 0.00 0.00 0.00 64
20170624000008 80 300 2.0 9.0 0.00 0.00 0.00 64
20170623235730 80 300 2.0 9.0 0.00 0.00 0.00 64
20170623235428 80 260 4.0 11.0 0.00 0.00 0.00 64
20170623235126 80 260 6.0 11.0 0.00 0.00 0.00 63
20170623234824 80 254 8.0 12.0 0.00 0.00 0.00 62
20170623234522 82 25 4.0 12.0 0.00 0.00 0.00 61
20170623234152 82 23 6.0 9.0 0.00 0.00 0.00 60
20170623233918 82 23 6.0 9.0 0.00 0.00 0.00 60
20170623233011 82 299 0.0 8.0 0.00 0.00 0.00 61
20170623232928 81 298 4.0 8.0 0.00 0.00 0.00 61
20170623232708 81 298 4.0 8.0 0.00 0.00 0.00 61
20170623232405 81 92 1.0 12.0 0.00 0.00 0.00 61
20170623232258 81 122 1.0 12.0 0.00 0.00 0.00 61
20170623232102 81 122 1.0 12.0 0.00 0.00 0.00 61
20170623231741 81 243 3.0 9.0 0.00 0.00 0.00 62
20170623231458 81 243 3.0 9.0 0.00 0.00 0.00 62
20170623225643 81 219 2.0 8.0 0.00 0.00 0.00 62
20170623224646 79 115 1.0 6.0 0.00 0.00 0.00 64
20170623224433 79 115 1.0 6.0 0.00 0.00 0.00 64
20170623224407 80 199 5.0 6.0 0.00 0.00 0.00 64
20170623224132 80 199 5.0 6.0 0.00 0.00 0.00 64
20170623224114 80 212 4.0 9.0 0.00 0.00 0.00 64
20170623223829 80 212 4.0 9.0 0.00 0.00 0.00 64
20170623223737 80 241 2.0 8.0 0.00 0.00 0.00 64
20170623223526 80 241 2.0 8.0 0.00 0.00 0.00 64
20170623223445 80 139 7.0 8.0 0.00 0.00 0.00 64
20170623223223 80 139 7.0 8.0 0.00 0.00 0.00 64
20170623222920 80 307 5.0 8.0 0.00 0.00 0.00 64
20170623222242 79 281 3.0 10.0 0.00 0.00 0.00 65
20170623222014 79 281 3.0 10.0 0.00 0.00 0.00 65
20170623221711 80 310 2.0 10.0 0.00 0.00 0.00 65
20170623221107 79 277 9.0 9.0 0.00 0.00 0.00 65
20170623221045 79 343 2.0 8.0 0.00 0.00 0.00 65
20170623220804 79 343 2.0 8.0 0.00 0.00 0.00 65
20170623220719 79 322 5.0 6.0 0.00 0.00 0.00 65
20170623220504 79 322 5.0 6.0 0.00 0.00 0.00 65
20170623220139 78 305 1.0 11.0 0.00 0.00 0.00 67
20170623215859 78 305 1.0 11.0 0.00 0.00 0.00 67
20170623215556 78 251 0.0 11.0 0.00 0.00 0.00 67
20170623215254 78 260 6.0 12.0 0.00 0.00 0.00 66
20170623214951 79 156 4.0 9.0 0.00 0.00 0.00 66
20170623214649 79 354 2.0 9.0 0.00 0.00 0.00 66
20170623214019 78 151 2.0 9.0 0.00 0.00 0.00 66
20170623213744 78 151 2.0 9.0 0.00 0.00 0.00 66
20170623213707 79 286 0.0 10.0 0.00 0.00 0.00 66
20170623213441 79 286 0.0 10.0 0.00 0.00 0.00 66
20170623212533 79 7 3.0 9.0 0.00 0.00 0.00 65
20170623212511 79 343 1.0 9.0 0.00 0.00 0.00 66
20170623212229 79 343 1.0 9.0 0.00 0.00 0.00 66
20170623211904 80 282 2.0 10.0 0.00 0.00 0.00 65
20170623211626 80 282 2.0 10.0 0.00 0.00 0.00 65
20170623211554 80 295 10.0 11.0 0.00 0.00 0.00 66
20170623211323 80 295 10.0 11.0 0.00 0.00 0.00 66
20170623211314 80 303 3.0 11.0 0.00 0.00 0.00 65
20170623211022 80 303 3.0 11.0 0.00 0.00 0.00 65
20170623210115 80 233 7.0 12.0 0.00 0.00 0.00 65
20170623205812 80 142 7.0 7.0 0.00 0.00 0.00 64
20170623205804 80 139 1.0 8.0 0.00 0.00 0.00 65
20170623205509 80 139 1.0 8.0 0.00 0.00 0.00 65
20170623205208 80 244 6.0 8.0 0.00 0.00 0.00 65
20170623205121 80 229 4.0 9.0 0.00 0.00 0.00 65
20170623204906 80 229 4.0 9.0 0.00 0.00 0.00 65
20170623204751 80 292 6.0 9.0 0.00 0.00 0.00 66
20170623204603 80 292 6.0 9.0 0.00 0.00 0.00 66
20170623204300 79 15 1.0 10.0 0.00 0.00 0.00 65
20170623204225 80 305 6.0 10.0 0.00 0.00 0.00 65
20170623203958 80 305 6.0 10.0 0.00 0.00 0.00 65
20170623203656 79 303 3.0 10.0 0.00 0.00 0.00 67
20170623203622 79 258 7.0 7.0 0.00 0.00 0.00 67
20170623203353 79 258 7.0 7.0 0.00 0.00 0.00 67
20170623203351 79 258 7.0 7.0 0.00 0.00 0.00 67
20170623202422 78 215 1.0 10.0 0.00 0.00 0.00 69
20170623202143 78 215 1.0 10.0 0.00 0.00 0.00 69
20170623202138 78 181 0.0 9.0 0.00 0.00 0.00 69
20170623201840 78 181 0.0 9.0 0.00 0.00 0.00 69
20170623201837 78 8 2.0 12.0 0.00 0.00 0.00 69
20170623201539 78 8 2.0 12.0 0.00 0.00 0.00 69
20170623201330 79 309 5.0 11.0 0.00 0.00 0.00 69
20170623201237 78 323 4.0 12.0 0.00 0.00 0.00 67
20170623201214 79 309 5.0 11.0 0.00 0.00 0.00 69
20170623200935 79 309 5.0 11.0 0.00 0.00 0.00 69
20170623200850 78 118 4.0 11.0 0.00 0.00 0.00 68
20170623200633 78 118 4.0 11.0 0.00 0.00 0.00 68
20170623200329 78 281 6.0 9.0 0.00 0.00 0.00 67
20170623200312 78 227 4.0 11.0 0.00 0.00 0.00 67
20170623200027 78 227 4.0 11.0 0.00 0.00 0.00 67
20170623195725 80 160 3.0 11.0 0.00 0.00 0.00 67
20170623195712 80 261 5.0 14.0 0.00 0.00 0.00 65
20170623195423 80 261 5.0 14.0 0.00 0.00 0.00 65
20170623195119 80 251 3.0 14.0 0.00 0.00 0.00 66
20170623194817 80 316 7.0 10.0 0.00 0.00 0.00 65
20170623194516 80 39 3.0 13.0 0.00 0.00 0.00 65
20170623194427 81 293 5.0 13.0 0.00 0.00 0.00 64
20170623194220 81 158 3.0 9.0 0.00 0.00 0.00 63
20170623194213 81 293 5.0 13.0 0.00 0.00 0.00 64
20170623193910 81 158 3.0 9.0 0.00 0.00 0.00 63
20170623193838 81 298 7.0 9.0 0.00 0.00 0.00 64
20170623193607 81 298 7.0 9.0 0.00 0.00 0.00 64
20170623193003 80 272 7.0 9.0 0.00 0.00 0.00 65
20170623192938 80 358 3.0 9.0 0.00 0.00 0.00 65
20170623192700 80 358 3.0 9.0 0.00 0.00 0.00 65
20170623192358 81 223 4.0 9.0 0.00 0.00 0.00 64
20170623192056 81 175 6.0 9.0 0.00 0.00 0.00 63
20170623191754 81 319 7.0 14.0 0.00 0.00 0.00 64
20170623191452 81 295 4.0 16.0 0.00 0.00 0.00 62
20170623191149 82 307 8.0 16.0 0.00 0.00 0.00 62
20170623191110 81 289 2.0 14.0 0.00 0.00 0.00 62
20170623190846 81 289 2.0 14.0 0.00 0.00 0.00 62
20170623190610 82 234 3.0 12.0 0.00 0.00 0.00 62
20170623190544 81 300 3.0 12.0 0.00 0.00 0.00 62
20170623190242 82 234 3.0 12.0 0.00 0.00 0.00 62
20170623190207 82 320 6.0 10.0 0.00 0.00 0.00 61
20170623185940 82 320 6.0 10.0 0.00 0.00 0.00 61
20170623185336 83 282 7.0 12.0 0.00 0.00 0.00 61
20170623184701 82 309 4.0 12.0 0.00 0.00 0.00 62
20170623184428 82 309 4.0 12.0 0.00 0.00 0.00 62
20170623184404 83 319 4.0 12.0 0.00 0.00 0.00 62
20170623184126 83 319 4.0 12.0 0.00 0.00 0.00 62
20170623183219 82 182 5.0 8.0 0.00 0.00 0.00 62
20170623182616 81 282 1.0 9.0 0.00 0.00 0.00 63
20170623182246 80 253 3.0 8.0 0.00 0.00 0.00 65
20170623182009 80 253 3.0 8.0 0.00 0.00 0.00 65
20170623181641 81 261 5.0 8.0 0.00 0.00 0.00 65
20170623181419 80 219 1.0 8.0 0.00 0.00 0.00 65
20170623181405 81 261 5.0 8.0 0.00 0.00 0.00 65
20170623181102 80 219 1.0 8.0 0.00 0.00 0.00 65
20170623181025 80 320 0.0 9.0 0.00 0.00 0.00 65
20170623180801 80 320 0.0 9.0 0.00 0.00 0.00 65
20170623180735 80 291 2.0 7.0 0.00 0.00 0.00 66
20170623180459 80 291 2.0 7.0 0.00 0.00 0.00 66
20170623180219 79 260 3.0 10.0 0.00 0.00 0.00 67
20170623175855 79 260 3.0 10.0 0.00 0.00 0.00 67
20170623175553 79 312 2.0 10.0 0.00 0.00 0.00 67
20170623174948 78 316 1.0 7.0 0.00 0.00 0.00 69
20170623174922 77 171 4.0 7.0 0.00 0.00 0.00 69
20170623174645 77 171 4.0 7.0 0.00 0.00 0.00 69
20170623174634 77 137 2.0 8.0 0.00 0.00 0.00 69
20170623174344 77 137 2.0 8.0 0.00 0.00 0.00 69
20170623174117 77 137 3.0 8.0 0.00 0.00 0.00 70
20170623173740 77 137 3.0 8.0 0.00 0.00 0.00 70
20170623172832 77 195 2.0 7.0 0.00 0.00 0.00 71
20170623172528 77 133 1.0 7.0 0.00 0.00 0.00 72
20170623172226 77 216 5.0 7.0 0.00 0.00 0.00
20170623171832 77 215 5.0 7.0 0.00 0.00 0.00 70
20170623171622 77 215 5.0 7.0 0.00 0.00 0.00 70
20170623171327 78 168 2.0 6.0 0.00 0.00 0.00 71
20170623171015 78 168 2.0 6.0 0.00 0.00 0.00 71
20170623170717 77 312 1.0 6.0 0.00 0.00 0.00 71
20170623170412 77 312 1.0 6.0 0.00 0.00 0.00 71
20170623170111 77 258 1.0 6.0 0.00 0.00 0.00 73
20170623170058 76 306 5.0 6.0 0.00 0.00 0.00 73
20170623165809 76 306 5.0 6.0 0.00 0.00 0.00 73
20170623165754 76 251 5.0 9.0 0.00 0.00 0.00 74
20170623165507 76 251 5.0 9.0 0.00 0.00 0.00 74
20170623165212 75 153 3.0 6.0 0.00 0.00 0.00 73
20170623165205 76 300 2.0 9.0 0.00 0.00 0.00 75
20170623165203 76 300 2.0 9.0 0.00 0.00 0.00 75
20170623165138 75 153 3.0 6.0 0.00 0.00 0.00 73
20170623164903 75 153 3.0 6.0 0.00 0.00 0.00 73
20170623164806 76 2 2.0 6.0 0.00 0.00 0.00 73
20170623164600 76 2 2.0 6.0 0.00 0.00 0.00 73
20170623164335 75 187 2.0 8.0 0.00 0.00 0.00 75
20170623164259 75 336 2.0 6.0 0.00 0.00 0.00 75
20170623163957 75 187 2.0 8.0 0.00 0.00 0.00 75
20170623163853 75 43 5.0 8.0 0.00 0.00 0.00 74
20170623163703 76 135 2.0 6.0 0.00 0.00 0.00 73
20170623163653 75 43 5.0 8.0 0.00 0.00 0.00 74
20170623163351 76 135 2.0 6.0 0.00 0.00 0.00 73
20170623163049 76 147 4.0 6.0 0.00 0.00 0.00 75
20170623163012 76 147 4.0 6.0 0.00 0.00 0.00 75
20170623162747 76 147 4.0 6.0 0.00 0.00 0.00 75
20170623162445 75 260 4.0 7.0 0.00 0.00 0.00 77
20170623162224 75 284 3.0 5.0 0.00 0.00 0.00 76
20170623162148 75 284 3.0 5.0 0.00 0.00 0.00 76
20170623161840 75 284 3.0 5.0 0.00 0.00 0.00 76
20170623161236 73 237 1.0 4.0 0.00 0.00 0.00 77
20170623160329 74 282 0.0 4.0 0.00 0.00 0.00 78
20170623160301 73 257 2.0 5.0 0.00 0.00 0.00 78
20170623160026 73 257 2.0 5.0 0.00 0.00 0.00 78
20170623155120 73 267 2.0 4.0 0.00 0.00 0.00 80
20170623154513 72 326 4.0 4.0 0.00 0.00 0.00 82
20170623153310 69 233 2.0 5.0 0.00 0.00 0.00 87
20170623153003 69 233 2.0 5.0 0.00 0.00 0.00 87
20170623152659 69 225 1.0 5.0 0.00 0.00 0.00 87
20170623152357 69 191 1.0 4.0 0.00 0.00 0.00 88
20170623152055 69 170 1.0 4.0 0.00 0.00 0.00 88
20170623151751 69 189 2.0 3.0 0.00 0.00 0.00 89
20170623151421 68 229 1.0 4.0 0.00 0.00 0.00 90
20170623151145 68 229 1.0 4.0 0.00 0.00 0.00 90
20170623150843 67 247 1.0 5.0 0.00 0.00 0.00 91
20170623150738 67 334 1.0 4.0 0.00 0.00 0.00 91
20170623150540 67 334 1.0 4.0 0.00 0.00 0.00 91
20170623150236 67 196 0.0 3.0 0.00 0.00 0.00 93
20170623145934 67 196 0.0 3.0 0.00 0.00 0.00 93
20170623145632 67 165 0.0 3.0 0.00 0.00 0.00 93
20170623145328 67 130 0.0 3.0 0.00 0.00 0.00 94
20170623145025 67 160 1.0 4.0 0.00 0.00 0.00 94
20170623144720 67 237 1.0 0.0 0.00 0.00 0.00 95
20170623144420 67 237 1.0 0.0 0.00 0.00 0.00 95
20170623144330 67 99 0.0 0.0 0.00 0.00 0.00 96
20170623144117 67 99 0.0 0.0 0.00 0.00 0.00 96
20170623143814 67 99 0.0 0.0 0.00 0.00 0.00 97
20170623143756 66 99 0.0 1.0 0.00 0.00 0.00 97
20170623143511 66 99 0.0 1.0 0.00 0.00 0.00 97
20170623143356 66 99 0.0 1.0 0.00 0.00 0.00 97
20170623143209 66 99 0.0 1.0 0.00 0.00 0.00 97
20170623142906 66 99 0.0 3.0 0.00 0.00 0.00 98
20170623142839 65 35 0.0 3.0 0.00 0.00 0.00 98
20170623142603 65 35 0.0 3.0 0.00 0.00 0.00 98
20170623142300 64 132 2.0 0.0 0.00 0.00 0.00 98
20170623141957 64 4 0.0 0.0 0.00 0.00 0.00 99
20170623140443 62 29 0.0 0.0 0.00 0.00 0.00 99
20170623140140 62 262 0.0 0.0 0.00 0.00 0.00 99
20170623140045 62 262 0.0 1.0 0.00 0.00 0.00 99
20170623135838 62 262 0.0 1.0 0.00 0.00 0.00 99
20170623135823 61 262 0.0 3.0 0.00 0.00 0.00 99
20170623135535 61 262 0.0 3.0 0.00 0.00 0.00 99
20170623135322 61 347 2.0 2.0 0.00 0.00 0.00 99
20170623135231 61 302 0.0 3.0 0.00 0.00 0.00 99
20170623134929 61 347 2.0 2.0 0.00 0.00 0.00 99
20170623134625 61 282 0.0 2.0 0.00 0.00 0.00 99
20170623134323 61 324 1.0 2.0 0.00 0.00 0.00 99
20170623133414 61 68 0.0 4.0 0.00 0.00 0.00 99
20170623132820 61 43 1.0 2.0 0.00 0.00 0.00 99
20170623132808 62 29 1.0 3.0 0.00 0.00 0.00 99
20170623132506 61 43 1.0 2.0 0.00 0.00 0.00 99
20170623132205 60 49 0.0 1.0 0.00 0.00 0.00 99
20170623131900 60 49 0.0 1.0 0.00 0.00 0.00 99
20170623131557 60 87 1.0 1.0 0.00 0.00 0.00 99
20170623131255 60 54 0.0 0.0 0.00 0.00 0.00 99
20170623130951 60 54 0.0 0.0 0.00 0.00 0.00 99
20170623130648 60 54 0.0 0.0 0.00 0.00 0.00 99
20170623125826 59 68 0.0 2.0 0.00 0.00 0.00 99
20170623125740 59 54 0.0 1.0 0.00 0.00 0.00 99
20170623125438 59 68 0.0 2.0 0.00 0.00 0.00 99
20170623125230 58 40 0.0 1.0 0.00 0.00 0.00 99
20170623125134 59 68 0.0 2.0 0.00 0.00 0.00 99
20170623124832 58 40 0.0 1.0 0.00 0.00 0.00 99
20170623123923 59 59 2.0 0.0 0.00 0.00 0.00 99
20170623123025 59 282 0.0 0.0 0.00 0.00 0.00 99
20170623122711 59 282 0.0 0.0 0.00 0.00 0.00 99
20170623122409 59 282 0.0 0.0 0.00 0.00 0.00 99
20170623121601 60 282 0.0 0.0 0.00 0.00 0.00 99
20170623121304 60 282 0.0 0.0 0.00 0.00 0.00 99
20170623121254 59 282 0.0 0.0 0.00 0.00 0.00 99
20170623120902 59 282 0.0 0.0 0.00 0.00 0.00 99
20170623120739 59 282 0.0 0.0 0.00 0.00 0.00 99
20170623120459 59 282 0.0 0.0 0.00 0.00 0.00 99
20170623120400 60 282 0.0 0.0 0.00 0.00 0.00 99
20170623120041 60 282 0.0 0.0 0.00 0.00 0.00 99
20170623115657 60 282 0.0 0.0 0.00 0.00 0.00 99
20170623115249 60 282 0.0 0.0 0.00 0.00 0.00 99
20170623114853 60 282 0.0 0.0 0.00 0.00 0.00 99
20170623114749 61 282 0.0 0.0 0.00 0.00 0.00 99
20170623114452 61 282 0.0 0.0 0.00 0.00 0.00 99
20170623114049 61 282 0.0 0.0 0.00 0.00 0.00 99
20170623113649 61 282 0.0 0.0 0.00 0.00 0.00 99
20170623113547 60 282 0.0 1.0 0.00 0.00 0.00 99
20170623113246 60 282 0.0 1.0 0.00 0.00 0.00 99
20170623113149 61 302 0.0 2.0 0.00 0.00 0.00 99
20170623112845 61 302 0.0 2.0 0.00 0.00 0.00 99
20170623112443 61 316 1.0 1.0 0.00 0.00 0.00 99
20170623112041 61 313 1.0 0.0 0.00 0.00 0.00 99
20170623111639 61 278 0.0 0.0 0.00 0.00 0.00 99
20170623110735 61 300 3.0 5.0 0.00 0.00 0.00 99
20170623110434 61 300 3.0 5.0 0.00 0.00 0.00 99
20170623110032 61 295 4.0 5.0 0.00 0.00 0.00 99
20170623105229 61 299 2.0 4.0 0.00 0.00 0.00 99
20170623105058 61 219 0.0 3.0 0.00 0.00 0.00 99
20170623104827 61 219 0.0 3.0 0.00 0.00 0.00 99
20170623104450 61 333 1.0 3.0 0.00 0.00 0.00 99
20170623104425 61 282 0.0 4.0 0.00 0.00 0.00 99
20170623104024 61 333 1.0 3.0 0.00 0.00 0.00 99
20170623104001 61 42 0.0 3.0 0.00 0.00 0.00 99
20170623103621 61 42 0.0 3.0 0.00 0.00 0.00 99
20170623102818 61 61 4.0 3.0 0.00 0.00 0.00 99
20170623102417 61 61 4.0 3.0 0.00 0.00 0.00 99
20170623102414 61 43 2.0 0.0 0.00 0.00 0.00 98
20170623102014 61 43 2.0 0.0 0.00 0.00 0.00 98
20170623101613 61 54 1.0 0.0 0.00 0.00 0.00 98
20170623101611 62 36 0.0 2.0 0.00 0.00 0.00 98
20170623101211 62 36 0.0 2.0 0.00 0.00 0.00 98
20170623100307 62 99 1.0 3.0 0.00 0.00 0.00 98
20170623100006 62 99 1.0 3.0 0.00 0.00 0.00 98
20170623095906 62 97 2.0 3.0 0.00 0.00 0.00 98
20170623095604 62 97 2.0 3.0 0.00 0.00 0.00 98
20170623095511 62 64 1.0 2.0 0.00 0.00 0.00 98
20170623095203 62 64 1.0 2.0 0.00 0.00 0.00 98
20170623095201 62 64 1.0 2.0 0.00 0.00 0.00 98
20170623094800 62 248 0.0 0.0 0.00 0.00 0.00 98
20170623094453 62 248 0.0 2.0 0.00 0.00 0.00 98
20170623094359 62 248 0.0 1.0 0.00 0.00 0.00 98
20170623093957 62 248 0.0 2.0 0.00 0.00 0.00 98
20170623093955 62 248 0.0 2.0 0.00 0.00 0.00 98
20170623093136 62 116 0.0 0.0 0.00 0.00 0.00 98
20170623092751 62 116 0.0 0.0 0.00 0.00 0.00 98
20170623092741 62 116 0.0 2.0 0.00 0.00 0.00 98
20170623092349 62 116 0.0 2.0 0.00 0.00 0.00 98
20170623091554 62 206 1.0 3.0 0.00 0.00 0.00 98
20170623091145 62 206 1.0 3.0 0.00 0.00 0.00 98
20170623090743 62 257 3.0 0.0 0.00 0.00 0.00 98
20170623090741 62 257 3.0 0.0 0.00 0.00 0.00 98
20170623090714 61 316 0.0 3.0 0.00 0.00 0.00 98
20170623090341 61 316 0.0 3.0 0.00 0.00 0.00 98
20170623085956 61 12 2.0 1.0 0.00 0.00 0.00 98
20170623085537 61 12 2.0 1.0 0.00 0.00 0.00 98
20170623085134 62 67 0.0 1.0 0.00 0.00 0.00 98
20170623085009 61 98 0.0 3.0 0.00 0.00 0.00 98
20170623084734 61 98 0.0 3.0 0.00 0.00 0.00 98
20170623084710 61 216 1.0 2.0 0.00 0.00 0.00 98
20170623084332 61 216 1.0 2.0 0.00 0.00 0.00 98
20170623083930 61 223 2.0 2.0 0.00 0.00 0.00 98
20170623083845 62 133 1.0 2.0 0.00 0.00 0.00 98
20170623083527 62 133 1.0 2.0 0.00 0.00 0.00 98
20170623083127 61 125 0.0 2.0 0.00 0.00 0.00 98
20170623082726 61 137 2.0 2.0 0.00 0.00 0.00 98
20170623082724 61 137 2.0 2.0 0.00 0.00 0.00 98
20170623082610 62 90 0.0 4.0 0.00 0.00 0.00 98
20170623082322 62 90 0.0 4.0 0.00 0.00 0.00 98
20170623081821 62 18 0.0 1.0 0.00 0.00 0.00 98
20170623081520 62 18 0.0 1.0 0.00 0.00 0.00 98
20170623081439 62 19 1.0 1.0 0.00 0.00 0.00 98
20170623081118 62 19 1.0 1.0 0.00 0.00 0.00 98
20170623080242 61 126 2.0 2.0 0.00 0.00 0.00 98
20170623075913 61 126 2.0 2.0 0.00 0.00 0.00 98
20170623075847 60 5 0.0 1.0 0.00 0.00 0.00 98
20170623075511 60 5 0.0 1.0 0.00 0.00 0.00 98
20170623075109 60 21 1.0 1.0 0.00 0.00 0.00 98
20170623074939 60 80 0.0 0.0 0.00 0.00 0.00 97
20170623074708 60 80 0.0 0.0 0.00 0.00 0.00 97
20170623073904 60 80 0.0 0.0 0.00 0.00 0.00 97
20170623073502 59 80 0.0 0.0 0.00 0.00 0.00 97
20170623073331 59 80 0.0 0.0 0.00 0.00 0.00 97
20170623073100 59 80 0.0 0.0 0.00 0.00 0.00 97
20170623072659 59 80 0.0 0.0 0.00 0.00 0.00 97
20170623072217 59 80 0.0 0.0 0.00 0.00 0.00 97
20170623071855 59 80 0.0 0.0 0.00 0.00 0.00 97
20170623071722 60 80 0.0 2.0 0.00 0.00 0.00 97
20170623071453 60 80 0.0 2.0 0.00 0.00 0.00 97
20170623071413 60 80 0.0 2.0 0.00 0.00 0.00 97
20170623071051 60 80 0.0 2.0 0.00 0.00 0.00 97
20170623070849 60 92 0.0 0.0 0.00 0.00 0.00 97
20170623070649 60 92 0.0 0.0 0.00 0.00 0.00 97
20170623070516 60 92 0.0 0.0 0.00 0.00 0.00 97
20170623070248 60 92 0.0 0.0 0.00 0.00 0.00 97
20170623065828 60 92 0.0 0.0 0.00 0.00 0.00 96
20170623065444 60 92 0.0 0.0 0.00 0.00 0.00 96
20170623065344 60 92 0.0 0.0 0.00 0.00 0.00 96
20170623065042 60 92 0.0 0.0 0.00 0.00 0.00 96
20170623064640 60 92 0.0 0.0 0.00 0.00 0.00 96
20170623064237 60 92 0.0 0.0 0.00 0.00 0.00 96
20170623063435 60 92 0.0 0.0 0.00 0.00 0.00 96
20170623063035 61 92 0.0 0.0 0.00 0.00 0.00 96
20170623062632 61 92 0.0 0.0 0.00 0.00 0.00 96
20170623062155 61 92 0.0 0.0 0.00 0.00 0.00 96
20170623061828 61 92 0.0 0.0 0.00 0.00 0.00 96
20170623061725 61 92 0.0 0.0 0.00 0.00 0.00 96
20170623061427 61 92 0.0 0.0 0.00 0.00 0.00 96
20170623061425 61 92 0.0 0.0 0.00 0.00 0.00 96
20170623060623 61 92 0.0 0.0 0.00 0.00 0.00 95
20170623060324 62 92 0.0 0.0 0.00 0.00 0.00 95
20170623055653 62 92 0.0 0.0 0.00 0.00 0.00 95
20170623055417 62 92 0.0 0.0 0.00 0.00 0.00 95
20170623055400 62 92 0.0 0.0 0.00 0.00 0.00 95
20170623055016 62 92 0.0 0.0 0.00 0.00 0.00 95
20170623054858 62 92 0.0 0.0 0.00 0.00 0.00 95
20170623054614 62 92 0.0 0.0 0.00 0.00 0.00 95
20170623054213 63 92 0.0 0.0 0.00 0.00 0.00 95
20170623053810 62 92 0.0 0.0 0.00 0.00 0.00 95
20170623052625 63 92 0.0 0.0 0.00 0.00 0.00 94
20170623052203 63 92 0.0 0.0 0.00 0.00 0.00 94
20170623052118 63 92 0.0 0.0 0.00 0.00 0.00 94
20170623051802 63 92 0.0 0.0 0.00 0.00 0.00 94
20170623051800 63 92 0.0 0.0 0.00 0.00 0.00 94
20170623051400 63 92 0.0 0.0 0.00 0.00 0.00 94
20170623050959 63 92 0.0 0.0 0.00 0.00 0.00 94
20170623050556 64 92 0.0 0.0 0.00 0.00 0.00 93
20170623050159 64 92 0.0 0.0 0.00 0.00 0.00 94
20170623045753 64 92 0.0 0.0 0.00 0.00 0.00 94
20170623045729 64 92 0.0 2.0 0.00 0.00 0.00 93
20170623045351 64 92 0.0 2.0 0.00 0.00 0.00 93
20170623045237 64 91 0.0 1.0 0.00 0.00 0.00 93
20170623044949 64 91 0.0 1.0 0.00 0.00 0.00 93
20170623044855 64 54 0.0 1.0 0.00 0.00 0.00 92
20170623044548 64 54 0.0 1.0 0.00 0.00 0.00 92
20170623044546 64 54 0.0 1.0 0.00 0.00 0.00 92
20170623044344 64 32 0.0 0.0 0.00 0.00 0.00 92
20170623044145 64 32 0.0 0.0 0.00 0.00 0.00 92
20170623043634 64 32 0.0 0.0 0.00 0.00 0.00 92
20170623043342 64 32 0.0 0.0 0.00 0.00 0.00 92
20170623043247 65 32 0.0 0.0 0.00 0.00 0.00 92
20170623042941 65 32 0.0 0.0 0.00 0.00 0.00 92
20170623042402 65 32 0.0 0.0 0.00 0.00 0.00 89
20170623042137 65 32 0.0 0.0 0.00 0.00 0.00 89
20170623041735 65 32 0.0 0.0 0.00 0.00 0.00 89
20170623041332 66 32 0.0 0.0 0.00 0.00 0.00 89
20170623041248 66 32 0.0 0.0 0.00 0.00 0.00 89
20170623040931 66 32 0.0 0.0 0.00 0.00 0.00 89
20170623040917 66 32 0.0 2.0 0.00 0.00 0.00 89
20170623040530 66 32 0.0 2.0 0.00 0.00 0.00 89
20170623034923 66 98 2.0 3.0 0.00 0.00 0.00 88
20170623034119 67 192 0.0 1.0 0.00 0.00 0.00 87
20170623033311 67 74 0.0 3.0 0.00 0.00 0.00 86
20170623033009 67 303 1.0 3.0 0.00 0.00 0.00 86
20170623032728 68 172 0.0 4.0 0.00 0.00 0.00 85
20170623032706 68 279 2.0 3.0 0.00 0.00 0.00 86
20170623032421 68 255 2.0 4.0 0.00 0.00 0.00 85
20170623032403 68 172 0.0 4.0 0.00 0.00 0.00 85
20170623032100 68 255 2.0 4.0 0.00 0.00 0.00 85
20170623031815 68 250 2.0 6.0 0.00 0.00 0.00 84
20170623031757 68 265 1.0 4.0 0.00 0.00 0.00 84
20170623031656 69 241 3.0 6.0 0.00 0.00 0.00 83
20170623031454 68 250 2.0 6.0 0.00 0.00 0.00 84
20170623031214 69 219 2.0 4.0 0.00 0.00 0.00 83
20170623031152 69 241 3.0 6.0 0.00 0.00 0.00 83
20170623030848 69 219 2.0 4.0 0.00 0.00 0.00 83
20170623030818 69 258 3.0 3.0 0.00 0.00 0.00 82
20170623030549 69 278 3.0 3.0 0.00 0.00 0.00 81
20170623030546 69 258 3.0 3.0 0.00 0.00 0.00 82
20170623030301 70 229 3.0 4.0 0.00 0.00 0.00 80
20170623030244 69 278 3.0 3.0 0.00 0.00 0.00 81
20170623025942 70 229 3.0 4.0 0.00 0.00 0.00 80
20170623025639 70 217 0.0 4.0 0.00 0.00 0.00 80
20170623025034 71 15 1.0 4.0 0.00 0.00 0.00 79
20170623024659 72 279 0.0 5.0 0.00 0.00 0.00 77
20170623024429 72 279 0.0 5.0 0.00 0.00 0.00 77
20170623024208 73 201 1.0 5.0 0.00 0.00 0.00 75
20170623024126 73 192 2.0 5.0 0.00 0.00 0.00 76
20170623023825 73 201 1.0 5.0 0.00 0.00 0.00 75
20170623023521 73 95 0.0 6.0 0.00 0.00 0.00 75
20170623023457 73 310 0.0 6.0 0.00 0.00 0.00 75
20170623023255 73 315 0.0 3.0 0.00 0.00 0.00 74
20170623023219 73 310 0.0 6.0 0.00 0.00 0.00 75
20170623022916 73 315 0.0 3.0 0.00 0.00 0.00 74
20170623022333 74 147 0.0 7.0 0.00 0.00 0.00 74
20170623022313 73 265 0.0 5.0 0.00 0.00 0.00 74
20170623022011 74 147 0.0 7.0 0.00 0.00 0.00 74
20170623021709 74 246 1.0 7.0 0.00 0.00 0.00 73
20170623021658 74 253 5.0 7.0 0.00 0.00 0.00 72
20170623021405 74 253 5.0 7.0 0.00 0.00 0.00 72
20170623021357 75 246 3.0 7.0 0.00 0.00 0.00 71
20170623021103 75 246 3.0 7.0 0.00 0.00 0.00 71
20170623020458 76 191 0.0 6.0 0.00 0.00 0.00 70
20170623020243 76 45 0.0 7.0 0.00 0.00 0.00 70